• MPC Preparation (Info)

  • MPEC 2014-F67 : 2014 FO38

    The following Minor Planet Electronic Circular may be linked-to from your own Web pages, but must not otherwise be redistributed electronically.

    A form allowing access to any MPEC is at the bottom of this page.


    Read MPEC 2014-F66 Read MPEC 2014-F68


    M.P.E.C. 2014-F67                                Issued 2014 Mar. 29, 10:56 UT
    
         The Minor Planet Electronic Circulars contain information on unusual
             minor planets and routine data on comets.  They are published
       on behalf of Commission 20 of the International Astronomical Union by the
              Minor Planet Center, Smithsonian Astrophysical Observatory,
                              Cambridge, MA 02138, U.S.A.
    
                 Prepared using the Tamkin Foundation Computer Network
    
                                  MPC@CFA.HARVARD.EDU
                URL https://www.minorplanetcenter.net/    ISSN 1523-6714
    
                                       2014 FO38
    
    Observations:
         K14F38O* C2014 03 28.35210 15 24 57.69 +21 32 01.5          19.0 VqEF067703
         K14F38O  C2014 03 28.35929 15 24 17.14 +21 32 07.3          18.4 VqEF067703
         K14F38O  C2014 03 28.37358 15 22 56.28 +21 32 16.2          18.9 VqEF067703
         K14F38O  C2014 03 28.41787 15 18 40.75 +21 32 18.9          18.5 VqEF067703
         K14F38O  C2014 03 28.41867 15 18 36.11 +21 32 18.2          18.2 VqEF067703
         K14F38O  C2014 03 28.41946 15 18 31.59 +21 32 17.7          18.6 VqEF067703
         K14F38O  C2014 03 28.48664 15 11 59.22 +21 31 00.4          18.1 VqEF067703
         K14F38O  C2014 03 28.48842 15 11 48.69 +21 30 57.9          17.9 VqEF067703
         K14F38O  C2014 03 28.48929 15 11 43.66 +21 30 55.5          17.9 VqEF067703
         K14F38O  C2014 03 28.89378 14 33 15.84 +21 00 01.4          17.7 RqEF067246
         K14F38O  C2014 03 28.89394 14 33 14.96 +21 00 00.9                qEF067246
         K14F38O  C2014 03 28.89404 14 33 14.35 +21 00 00.5                qEF067246
         K14F38O  C2014 03 28.89420 14 33 13.32 +20 59 59.0                qEF067246
         K14F38O  C2014 03 28.89434 14 33 12.46 +20 59 58.2                qEF067246
         K14F38O  C2014 03 28.89449 14 33 11.61 +20 59 57.5                qEF067246
         K14F38O  C2014 03 28.89463 14 33 10.68 +20 59 56.5                qEF067246
         K14F38O  C2014 03 28.89682 14 32 57.37 +20 59 43.8          17.8 RqEF067246
         K14F38O  C2014 03 28.89699 14 32 56.37 +20 59 43.3          17.5 RqEF067246
         K14F38O  C2014 03 28.89734 14 32 54.19 +20 59 40.9                qEF067246
         K14F38O  C2014 03 28.89748 14 32 53.36 +20 59 40.2                qEF067246
         K14F38O  C2014 03 28.89764 14 32 52.38 +20 59 39.2          17.8 RqEF067246
         K14F38O  C2014 03 28.89781 14 32 51.35 +20 59 38.5          18.0 RqEF067246
         K14F38O  C2014 03 28.89795 14 32 50.51 +20 59 37.8                qEF067246
         K14F38O  C2014 03 28.89813 14 32 49.46 +20 59 36.5          17.7 RqEF067246
         K14F38O KC2014 03 28.99439 14 22 57.41 +20 49 16.6          17.8 VqEF067595
         K14F38O KC2014 03 28.99797 14 22 35.05 +20 48 48.5                qEF067595
         K14F38O KC2014 03 29.00182 14 22 11.08 +20 48 18.8          18.2 VqEF067595
         K14F38O KC2014 03 29.03794 14 18 28.84 +20 43 19.1          17.9 RqEF067204
         K14F38O KC2014 03 29.04022 14 18 14.56 +20 42 59.4                qEF067204
         K14F38O KC2014 03 29.04251 14 18 00.29 +20 42 39.8                qEF067204
         K14F38O KC2014 03 29.04479 14 17 46.05 +20 42 20.0                qEF067204
         K14F38O KC2014 03 29.04707 14 17 31.80 +20 42 00.3                qEF067204
         K14F38O KC2014 03 29.18844 14 03 52.23 +20 19 08.1          17.5 RqEF067H36
         K14F38O KC2014 03 29.19006 14 03 42.27 +20 18 52.4          17.2 RqEF067H36
         K14F38O KC2014 03 29.19166 14 03 32.23 +20 18 37.0          18.0 RqEF067H36
         K14F38O KC2014 03 29.19328 14 03 22.43 +20 18 21.8          18.2 RqEF067H36
         K14F38O  C2014 03 29.32304 13 50 07.64 +19 55 40.5          17.5 VqEF067G96
         K14F38O  C2014 03 29.32357 13 50 04.37 +19 55 34.2          17.6 VqEF067G96
         K14F38O  C2014 03 29.32383 13 50 02.56 +19 55 30.6          18.2 VqEF067G96
    
    Observer details:
    204 Schiaparelli Observatory.  Observer L. Buzzi.  0.60-m f/4.64 reflector
        + CCD.
    246 Klet Observatory-KLENOT.  Observers J. Ticha, M. Tichy, M. Kocer,
        M. Honkova.  Measurer M. Tichy.  1.06-m KLENOT Telescope + CCD.
    595 Farra d'Isonzo.  Observer E. Pettarin.  0.61-m f/4.0 reflector + CCD.
    703 Catalina Sky Survey.  Observer R. A. Kowalski.  Measurers
        E. J. Christensen, A. R. Gibbs, A. D. Grauer, R. E. Hill, J. A. Johnson,
        R. A. Kowalski, S. M. Larson, F. C. Shelly.  0.68-m Schmidt + CCD.
    G96 Mt. Lemmon Survey.  Observer J. A. Johnson.  Measurers E. J. Christensen,
        A. R. Gibbs, A. D. Grauer, R. E. Hill, J. A. Johnson, R. A. Kowalski,
        S. M. Larson, F. C. Shelly.  1.5-m reflector + CCD.
    H36 Sandlot Observatory, Scranton.  Observer G. Hug.  0.56-m reflector + CCD.
    
    Orbital elements:
    2014 FO38                                                Earth MOID = 0.0119 AU
    Epoch 2014 May 23.0 TT = JDT 2456800.5                  MPC
    M 230.02356              (2000.0)            P               Q
    n   1.55088286     Peri.   14.43617     +0.90789745     -0.41807970
    a   0.7391797      Node    10.43555     +0.36595500     +0.75497969
    e   0.4031065      Incl.    9.70107     +0.20444841     +0.50518811
    P   0.64           H   26.1           G   0.15           U   8
    Residuals in seconds of arc
    140328 703 (4.6-  0.4+)   140328 246  0.3-  0.4-    140329 595  0.9-  0.9+
    140328 703  1.0-  0.1+    140328 246  0.5+  0.2-    140329 204  0.8+  0.0
    140328 703 (7.3+  0.1-)   140328 246  0.6-  0.4-    140329 204  0.2+  0.2-
    140328 703  0.4+  0.3+    140328 246  0.2-  0.4-    140329 204  0.5+  0.0
    140328 703  0.4+  0.1-    140328 246  0.3+  0.1+    140329 204  0.5+  0.1-
    140328 703  1.3+  0.2-    140328 246  0.4-  0.3-    140329 204  0.3+  0.1+
    140328 703  0.0   0.2-    140328 246  0.1-  0.1-    140329 H36  0.6-  0.3-
    140328 703  1.2-  0.6+    140328 246  0.1-  0.2-    140329 H36  0.2-  0.4-
    140328 703  0.1-  0.1-    140328 246  0.0   0.1+    140329 H36 (2.7-  0.3-)
    140328 246  0.7-  0.4-    140328 246  0.1+  0.2+    140329 H36  0.0   0.2+
    140328 246  0.6+  0.0     140328 246  0.8+  0.0     140329 G96  0.1-  0.1+
    140328 246  0.5+  0.2+    140328 595  0.1+  0.8+    140329 G96  0.3+  0.2+
    140328 246  0.2-  0.4-    140328 595  1.0-  0.4+    140329 G96 (2.4-  0.3-)
    
    Ephemeris:
    2014 FO38                a,e,i = 0.74, 0.40, 10                  q = 0.4412
    Date    TT    R. A. (2000) Decl.     Delta      r     Elong.  Phase     V
    2014 02 27    20 08 59.9 +07 37 24   0.1524  0.8805    40.7   132.8    27.7
    ...
    2014 03 14    19 40 34.6 +09 47 36   0.07755 0.9572    59.6   116.4    25.0
    ...
    2014 03 22    19 01 14.3 +12 52 49   0.03857 0.9876    76.0   101.9    22.7
    ...
    2014 03 28    15 55 01.0 +21 22 52   0.01382 1.0057   123.4    55.9    18.8
    2014 03 29    14 22 17.5 +20 53 44   0.01243 1.0083   143.3    36.2    18.1
    2014 03 30    12 46 26.4 +17 03 15   0.01306 1.0108   159.1    20.6    17.7
    ...
    2014 04 05    09 27 06.2 +00 12 52   0.03697 1.0234   127.8    50.6    20.9
    ...
    2014 04 13    08 51 39.4 -03 41 23   0.07657 1.0338   112.1    63.9    22.9
    ...
    2014 04 28    08 41 23.2 -05 42 14   0.1494  1.0342    96.5    75.3    24.7
    
    A. U. Tomatic                (C) Copyright 2014 MPC           M.P.E.C. 2014-F67
    

    Read MPEC 2014-F66 Read MPEC 2014-F68


    MPEC number:

    Enter an MPEC number in one of the following forms:

    • 1997-B01 (the full form)
    • J97B01 (the packed version of the full form)
    • B01 (the abbreviated form)